Location: Neuendettelsau
(49.2860°N, 10.7873°E)
Time: 09:39:19
(UTC+01:00)

ISS - Visible Passes

Search period start: 08 December 2019 00:00
Search period end: 18 December 2019 00:00
Orbit: 411 x 421 km, 51.6° (Epoch: 08 December)

Date Brightness Start Highest point End Pass type
(mag) Time Alt. Az. Time Alt. Az. Time Alt. Az.
08 Dec -1.9 18:26:33 10° W 18:29:31 29° SW 18:31:04 20° S visible
09 Dec -2.6 17:37:57 10° WNW 17:41:10 43° SSW 17:44:22 10° SE visible
10 Dec -0.7 18:27:10 10° WSW 18:28:58 14° SW 18:30:46 10° S visible
11 Dec -1.0 17:38:06 10° W 17:40:41 21° SW 17:43:17 10° SSE visible
